DAL5794 KATL-KLAX

Flight info

Callsign DAL5794
Flight time N/A
Altitude 30000
Route NASSA2 YAALL J14 PNH ACH/N0475F320 ABQ J78 DRK GABBL HLYWD1
Aircraft A21N/M-SDE2E3FGHIRWXY/LB1

Departure

Time 2026-05-04 13:42
Airport Hartsfield Jackson Atlanta International Airport (KATL)

Arrival

Time N/A
Airport Los Angeles International Airport (KLAX)
Time Latitude Longitude Altitude Speed Heading
2026-05-04 13:33 33.63777 -84.42695 1009 ft 4 kts 71°
2026-05-04 13:33 33.63765 -84.42722 1009 ft 4 kts 39°
2026-05-04 13:34 33.63746 -84.42732 1009 ft 1 kts 360°
2026-05-04 13:34 33.63742 -84.42732 1010 ft 0 kts 360°
2026-05-04 13:36 33.63750 -84.42733 1010 ft 5 kts 359°
2026-05-04 13:36 33.63817 -84.42734 1009 ft 14 kts 359°
2026-05-04 13:36 33.63945 -84.42736 1009 ft 22 kts 359°
2026-05-04 13:36 33.64120 -84.42733 1009 ft 28 kts
2026-05-04 13:37 33.64332 -84.42709 1009 ft 34 kts
2026-05-04 13:37 33.64504 -84.42721 1009 ft 4 kts 357°
2026-05-04 13:37 33.64531 -84.42702 1009 ft 7 kts 41°
2026-05-04 13:37 33.64550 -84.42666 1009 ft 7 kts 75°
2026-05-04 13:38 33.64543 -84.42580 1009 ft 9 kts 92°
2026-05-04 13:38 33.64542 -84.42470 1009 ft 18 kts 89°
2026-05-04 13:38 33.64536 -84.42293 1009 ft 25 kts 94°
2026-05-04 13:38 33.64530 -84.42056 1009 ft 32 kts 90°
2026-05-04 13:39 33.64534 -84.41775 1008 ft 36 kts 92°
2026-05-04 13:39 33.64556 -84.41552 1010 ft 24 kts 95°
2026-05-04 13:39 33.64538 -84.41332 1010 ft 29 kts 94°
2026-05-04 13:39 33.64523 -84.41064 1010 ft 35 kts 92°
2026-05-04 13:40 33.64539 -84.40764 1009 ft 37 kts 90°
2026-05-04 13:40 33.64645 -84.40565 1007 ft 27 kts 348°
2026-05-04 13:40 33.64690 -84.40685 1007 ft 12 kts 255°
2026-05-04 13:40 33.64677 -84.40661 1007 ft 384 kts 270°
2026-05-04 13:41 33.64680 -84.40567 1007 ft 0 kts 270°
2026-05-04 13:41 33.64681 -84.40767 1008 ft 61 kts 270°
2026-05-04 13:41 33.64682 -84.41597 1011 ft 139 kts 270°
2026-05-04 13:42 33.64722 -84.44625 1583 ft 192 kts 272°
2026-05-04 13:42 33.64876 -84.46184 2520 ft 187 kts 279°
2026-05-04 13:42 33.65116 -84.47745 3295 ft 201 kts 281°
2026-05-04 13:42 33.65418 -84.49510 3687 ft 231 kts 282°
2026-05-04 13:43 33.65767 -84.51494 4324 ft 254 kts 282°
2026-05-04 13:43 33.66146 -84.53589 5435 ft 259 kts 282°
2026-05-04 13:43 33.66536 -84.55726 6602 ft 266 kts 282°
2026-05-04 13:43 33.66933 -84.57930 7617 ft 275 kts 282°
2026-05-04 13:44 33.67327 -84.60207 8720 ft 282 kts 282°
2026-05-04 13:44 33.67726 -84.62547 9868 ft 289 kts 283°
2026-05-04 13:44 33.68138 -84.64969 10685 ft 308 kts 282°
2026-05-04 13:44 33.68588 -84.67608 11124 ft 336 kts 282°
2026-05-04 13:45 33.69067 -84.70441 11816 ft 353 kts 282°
2026-05-04 13:45 33.69561 -84.73366 12807 ft 360 kts 282°
2026-05-04 13:45 33.69927 -84.76351 13911 ft 363 kts 275°
2026-05-04 13:45 33.70007 -84.79381 14932 ft 365 kts 271°
2026-05-04 13:46 33.70007 -84.82438 15987 ft 366 kts 271°
2026-05-04 13:46 33.69994 -84.85495 17003 ft 367 kts 272°
2026-05-04 13:46 33.69981 -84.88571 17987 ft 369 kts 272°
2026-05-04 13:46 33.69971 -84.91664 18878 ft 371 kts 272°
2026-05-04 13:47 33.69962 -84.94778 19631 ft 375 kts 272°
2026-05-04 13:47 33.69954 -84.97927 20348 ft 380 kts 272°
2026-05-04 13:47 33.69944 -85.01111 21086 ft 383 kts 272°
2026-05-04 13:47 33.69934 -85.04317 21809 ft 386 kts 272°
2026-05-04 13:48 33.69923 -85.07556 22512 ft 389 kts 271°
2026-05-04 13:48 33.69912 -85.10774 23204 ft 392 kts 271°
2026-05-04 13:48 33.69899 -85.14056 23891 ft 395 kts 271°
2026-05-04 13:48 33.69885 -85.17367 24471 ft 398 kts 271°
2026-05-04 13:49 33.69870 -85.20701 25053 ft 400 kts 271°
2026-05-04 13:49 33.69847 -85.24057 25619 ft 403 kts 271°
2026-05-04 13:49 33.69813 -85.27434 26171 ft 406 kts 271°
2026-05-04 13:49 33.69776 -85.30833 26702 ft 408 kts 271°
2026-05-04 13:50 33.69738 -85.34247 27173 ft 410 kts 271°
2026-05-04 13:50 33.69698 -85.37683 27650 ft 413 kts 270°
2026-05-04 13:50 33.69658 -85.41135 28110 ft 415 kts 270°
2026-05-04 13:50 33.69617 -85.44610 28554 ft 417 kts 270°
2026-05-04 13:51 33.69574 -85.48102 29103 ft 417 kts 270°
2026-05-04 13:51 33.69530 -85.51582 29721 ft 416 kts 270°
2026-05-04 13:51 33.69486 -85.55049 29973 ft 414 kts 270°
2026-05-04 13:51 33.69441 -85.58498 29995 ft 413 kts 270°
2026-05-04 13:52 33.69301 -85.68865 29995 ft 414 kts 270°
2026-05-04 13:53 33.69204 -85.75768 29998 ft 414 kts 270°
2026-05-04 13:53 33.69103 -85.82635 29998 ft 414 kts 270°